Temperature
24 23 22 21 21 20 20 20 19 19 19 18 18 18 18 18 18 18 18 18 18 18 18 18 18 17 17 18 17 17 17 17 17 17 18 18 17 17 17 17 17 17 17
24 23 22 22 21 21 21 20 20 19 19 19 19 18 18 18 18 18 18 18 18 18 18 18 17 17 18 17 17 17 17 17 17 17 18 18 18 17 17 17 17 17 17
25 23 23 22 22 21 21 21 20 19 19 19 19 18 18 18 18 18 18 18 18 18 18 18 18 18 17 17 17 17 17 17 17 17 18 18 18 17 17 17 16 16 16
25 24 23 23 22 22 21 21 20 20 20 19 19 19 19 19 18 18 18 18 18 18 18 18 18 18 17 17 17 17 17 17 17 17 17 17 17 17 17 16 16 16 16
26 25 24 23 23 22 22 21 21 20 20 19 19 19 18 18 18 18 18 18 18 18 18 18 18 18 18 18 17 17 17 17 17 17 17 17 17 17 17 16 16 16 16
26 25 24 23 23 22 22 21 21 21 20 20 19 19 19 18 18 18 18 18 18 18 18 18 18 18 17 17 17 17 17 17 17 17 17 17 17 17 17 16 16 15 15
26 25 24 24 23 22 22 22 21 21 21 20 20 19 19 19 18 18 18 18 18 18 18 18 18 18 18 17 17 17 17 17 17 17 17 17 17 17 16 16 16 15 15
26 25 25 24 23 23 22 22 22 21 21 20 20 20 19 19 18 18 18 18 17 18 18 17 17 17 17 17 17 17 17 17 17 17 17 16 16 16 16 16 16 15 15
26 25 25 24 23 23 22 22 22 21 21 21 20 20 20 19 19 19 18 18 18 17 17 17 17 17 17 17 17 17 17 16 16 16 16 16 16 16 16 16 16 16 15
26 25 25 24 23 23 22 22 22 22 21 21 20 20 20 20 19 18 18 18 18 18 17 17 17 17 17 17 17 16 16 16 16 16 16 16 16 16 16 16 15 15 15
26 25 25 24 23 23 22 22 22 21 21 21 20 20 20 19 19 19 18 18 18 18 17 17 17 17 16 16 16 16 16 16 16 16 16 16 16 15 15 15 15 15 15
26 25 25 24 23 23 22 22 22 21 21 21 21 20 20 19 19 19 18 18 18 17 17 17 17 16 16 16 16 16 16 16 15 15 15 15 15 15 15 15 15 14 14
25 25 24 23 23 22 22 22 22 21 21 21 21 20 20 20 19 19 18 18 18 17 17 17 16 16 16 16 16 15 15 15 15 15 15 15 15 15 14 14 14 14 14
24 24 23 23 22 22 22 22 22 21 21 21 20 20 20 20 19 19 18 18 17 17 17 16 16 16 16 15 15 15 15 15 15 15 15 15 14 14 14 14 14 14 13
24 23 23 23 22 22 22 22 21 21 21 20 20 20 20 20 19 19 18 18 17 17 17 16 16 16 15 15 15 15 15 15 15 15 14 14 14 14 14 14 13 13 13
24 23 22 22 22 22 22 21 21 21 21 20 20 20 20 19 19 18 18 17 17 17 16 16 15 15 15 16 16 15 15 14 14 14 14 14 14 14 14 14 13 13 13
24 23 22 22 22 22 22 22 21 21 20 20 20 20 19 19 19 18 18 17 17 16 16 16 16 16 16 15 15 15 15 14 14 14 13 14 13 13 13 13 13 13 13
23 22 22 22 22 22 21 21 21 21 20 20 20 20 19 19 18 18 17 17 17 16 16 16 15 15 15 15 15 15 14 14 14 13 13 13 13 13 13 13 12 12 12
22 22 22 22 22 22 21 21 20 20 20 20 20 19 19 19 18 18 17 17 16 16 16 15 15 15 15 15 15 14 13 14 13 13 13 13 13 13 13 12 12 12 12
21 21 21 21 21 21 21 20 20 20 19 19 19 19 19 18 18 18 17 17 16 16 15 15 15 15 15 15 14 14 13 13 13 13 13 13 13 13 12 12 12 11 11
20 20 20 20 21 20 20 20 20 19 19 19 19 18 18 18 18 17 17 16 16 15 15 15 14 14 14 14 14 14 13 13 13 13 13 13 13 12 12 12 11 11 11
19 20 20 20 20 20 20 20 20 19 19 18 18 18 17 17 17 17 16 16 15 15 15 14 14 14 14 14 14 14 13 13 13 13 12 12 12 12 12 12 12 11 11
19 19 19 19 19 19 19 19 19 19 18 18 18 17 17 16 16 16 16 15 15 15 15 14 14 14 14 14 13 13 13 13 12 12 12 12 12 12 11 11 11 11 11
18 18 18 18 19 19 18 19 18 18 18 18 17 17 17 16 16 16 15 15 15 15 14 14 14 14 14 13 13 13 13 12 12 12 12 12 12 11 11 11 11 11 11
18 18 18 18 18 18 18 18 18 18 17 17 17 17 16 16 16 15 15 15 15 15 14 14 14 14 13 13 13 13 12 12 12 12 11 11 11 11 11 11 11 11 10
17 17 17 17 17 18 17 17 17 17 17 16 16 16 16 16 15 15 15 15 14 14 14 14 13 13 13 13 13 13 12 12 12 11 11 11 11 11 11 11 11 11 10
Wind_Speed
11 10 10 10 9 8 8 8 7 6 5 3 3 2 1 1 0 1 2 1 1 1 1 1 1 2 2 2 2 2 2 2 2 2 1 1 1 0 0 1 0 0 1
11 11 10 10 10 10 9 9 9 8 6 4 3 2 1 1 1 1 1 1 1 1 0 1 2 1 1 1 1 2 2 2 2 2 2 2 2 1 1 1 0 0 1
13 12 12 12 11 10 10 9 9 8 7 5 4 3 3 2 2 1 1 1 1 2 2 1 2 2 2 1 2 2 3 3 2 2 2 2 1 1 1 2 1 1 1
13 13 13 12 12 11 10 10 9 8 7 7 5 5 3 2 1 1 1 0 1 1 1 2 2 3 2 2 3 1 3 3 3 2 3 3 1 2 1 1 2 2 2
14 13 13 13 12 11 10 10 9 8 8 7 6 5 4 2 2 1 1 1 1 1 2 2 2 3 3 3 3 3 3 3 3 3 2 2 2 3 2 1 1 1 2
13 13 12 12 11 11 10 10 10 9 8 8 7 6 4 3 2 1 1 1 0 0 1 2 2 2 3 3 3 3 3 3 3 3 3 3 2 2 2 2 2 1 2
13 13 13 13 12 12 11 10 10 10 9 9 7 6 5 4 3 2 1 1 1 1 1 2 2 3 3 3 3 2 3 3 3 3 3 3 3 2 2 3 2 1 1
13 14 14 13 12 12 12 11 11 10 10 9 7 6 6 4 3 2 1 0 1 2 2 2 2 3 3 3 2 2 2 2 2 2 2 2 1 1 1 2 2 2 1
13 14 14 13 13 12 12 12 12 11 10 9 8 7 6 4 3 2 2 1 0 0 1 2 2 2 3 3 3 2 3 2 2 2 2 1 1 0 0 1 2 2 2
12 13 13 12 12 11 12 12 11 11 10 9 8 6 6 5 4 2 1 0 0 1 1 2 2 2 3 3 3 2 3 3 3 2 3 2 1 1 1 0 1 1 2
12 12 12 12 11 11 12 12 11 10 10 9 8 7 6 6 5 3 2 2 1 1 1 2 2 2 3 3 4 4 4 4 4 3 3 3 2 1 1 1 1 2 3
10 11 12 12 12 12 12 12 11 11 10 9 8 8 7 6 5 5 4 3 3 2 2 2 2 3 3 3 3 4 4 4 4 4 4 3 2 2 2 2 2 3 3
10 11 12 12 12 11 11 11 11 11 10 10 9 8 8 7 6 5 5 4 4 3 3 3 3 3 3 3 3 4 4 4 4 4 4 3 3 2 2 2 3 3 4
10 11 11 11 11 10 10 10 11 11 11 10 10 9 8 8 7 6 5 5 4 4 3 3 3 3 3 3 3 4 4 4 4 4 4 4 4 3 2 3 3 4 5
10 11 11 11 11 11 10 10 10 11 11 11 10 9 8 8 7 6 6 5 4 4 4 3 3 3 2 3 3 3 3 4 4 4 4 5 6 7 5 3 3 3 3
10 10 11 11 11 11 11 11 10 11 11 11 10 9 9 8 8 7 6 5 5 4 4 3 3 3 3 6 5 3 3 3 4 4 4 5 5 6 7 7 7 5 3
9 10 11 11 11 11 11 12 11 11 11 10 10 10 10 9 8 7 7 6 6 5 4 4 3 4 5 5 4 3 3 4 4 4 3 4 5 4 4 6 7 7 6
8 9 10 10 11 11 11 11 12 12 11 11 11 10 10 9 8 8 7 6 6 5 4 4 4 4 4 4 3 1 3 4 4 4 4 4 4 3 2 4 6 6 5
6 7 9 10 11 11 11 11 11 11 11 11 11 10 10 10 9 8 7 6 6 5 4 4 4 4 4 3 1 3 4 4 4 4 4 4 4 4 3 4 5 6 5
4 6 8 9 10 11 11 11 11 10 10 10 10 10 10 9 9 8 8 7 6 5 5 5 4 4 4 4 1 4 3 3 4 4 4 5 4 3 3 3 4 4 4
5 6 7 7 8 9 10 10 10 10 9 9 9 9 9 9 9 8 7 7 6 6 5 5 4 4 3 5 2 3 1 2 2 3 3 4 4 3 2 0 2 3 2
5 6 6 6 7 8 9 9 8 9 9 10 10 9 9 8 8 8 7 7 6 6 6 5 5 4 4 3 4 2 1 3 2 2 2 4 5 3 1 1 2 2 3
4 4 6 6 6 7 8 9 8 8 9 10 10 9 9 8 8 8 8 7 7 6 5 5 5 4 4 5 6 5 2 0 1 2 5 4 4 4 3 4 3 4 3
4 4 5 6 6 6 6 7 7 8 9 10 9 9 8 8 8 7 7 7 7 6 6 5 5 5 5 4 5 5 5 6 4 4 5 5 4 3 2 4 4 4 2
3 4 4 5 6 6 6 7 7 8 9 9 9 8 8 7 7 6 4 5 4 4 4 5 5 5 5 4 3 3 4 4 3 4 4 4 4 4 4 4 3 3 3
3 3 4 4 5 6 6 6 7 8 8 8 8 7 7 7 7 6 5 2 1 4 2 1 2 2 3 6 6 3 2 2 3 4 4 4 4 4 4 4 4 4 4
Wind_Direction
199 197 200 202 199 196 194 194 198 193 200 204 215 204 192 189 153 114 64 27 15 28 293 303 231 268 264 275 261 257 234 238 238 245 232 207 211 154 171 243 244 126 51
200 199 201 201 201 197 195 194 196 198 205 200 211 214 217 198 150 55 79 41 29 356 311 292 275 286 276 256 270 263 274 254 240 258 254 225 187 142 102 123 159 47 80
204 201 201 201 198 196 196 196 196 197 203 201 201 186 178 198 169 158 138 49 14 9 358 353 322 322 305 323 295 275 271 271 259 255 268 266 238 128 128 82 71 58 67
207 204 201 199 198 195 192 193 192 194 195 198 204 207 209 200 167 183 112 95 24 0 350 348 343 329 324 331 293 285 270 265 261 241 246 270 281 235 178 131 99 81 61
204 203 201 199 199 194 189 186 188 190 191 196 194 203 207 193 178 173 125 300 45 3 346 342 341 330 326 335 324 316 290 272 270 263 252 248 236 240 234 220 137 85 72
200 200 197 194 195 192 187 182 181 185 186 188 190 196 195 197 194 199 198 218 127 349 348 331 333 325 329 325 314 305 294 298 291 281 268 258 257 243 221 210 186 132 76
195 194 193 191 190 189 185 181 178 181 183 183 185 187 191 194 201 222 205 278 313 340 6 343 335 334 334 325 319 311 313 304 293 281 274 268 265 257 221 191 178 148 105
192 193 192 191 189 186 182 180 179 180 180 180 182 185 192 200 196 207 255 258 335 3 2 347 347 348 342 338 336 324 328 331 311 303 299 288 294 238 190 189 180 172 135
188 191 190 189 188 184 182 181 178 178 178 177 177 181 187 190 184 187 211 228 299 341 18 1 356 360 3 353 339 9 354 356 347 356 5 351 30 14 246 186 203 217 185
183 185 185 186 184 182 179 178 178 178 176 176 180 176 177 179 182 183 147 132 27 13 10 8 13 13 12 11 5 33 30 28 35 29 33 20 36 45 46 107 183 225 171
181 181 181 180 176 176 175 176 176 176 175 175 173 173 171 171 170 167 161 151 119 88 50 37 41 41 34 30 34 40 41 43 46 41 51 50 37 45 79 94 109 111 125
175 177 175 174 174 175 176 175 176 177 176 171 169 168 165 164 163 154 146 138 124 109 90 76 63 56 50 44 48 45 44 43 43 43 48 45 60 67 60 84 102 104 112
170 172 172 173 175 175 175 172 176 176 172 167 165 162 162 159 157 149 143 137 130 118 104 93 81 65 60 59 59 57 53 49 46 43 43 43 54 62 74 77 93 106 114
171 173 173 174 172 171 170 169 172 170 167 164 163 162 163 159 154 149 146 143 137 129 117 107 97 86 75 70 66 66 62 56 52 44 44 44 51 63 87 100 104 111 121
173 175 176 170 166 163 162 164 165 164 164 163 163 161 159 156 154 152 149 144 141 133 122 117 111 105 97 69 60 75 74 65 60 56 55 58 56 44 42 64 94 117 130
179 176 174 169 167 164 162 161 162 163 162 161 159 157 157 158 157 153 148 143 139 132 130 125 115 96 73 57 30 18 80 70 66 64 68 89 84 82 73 63 64 66 107
183 178 174 172 169 167 163 162 161 161 161 159 159 160 160 157 155 151 147 146 145 142 139 135 122 104 87 76 59 27 82 81 70 65 56 64 82 95 105 114 119 89 74
183 179 171 166 165 164 163 161 159 160 162 163 162 162 162 157 153 151 149 148 147 147 145 139 131 122 108 100 93 333 114 93 83 76 73 73 74 63 78 108 103 99 90
179 176 172 166 160 161 160 158 159 162 166 167 166 165 164 159 156 155 154 153 152 151 153 146 143 138 129 118 140 276 131 115 101 88 76 78 88 45 12 115 114 110 110
161 166 165 160 157 158 157 160 162 166 171 171 169 167 164 162 160 157 157 157 157 159 159 147 152 150 140 131 177 277 163 135 129 117 105 75 77 65 17 121 121 116 108
149 152 152 151 155 157 158 159 161 168 170 168 166 163 161 160 157 154 156 157 161 158 156 151 158 160 149 149 161 295 229 157 152 136 125 101 102 100 40 346 122 121 146
141 144 145 145 151 160 160 156 164 168 165 163 162 158 159 162 156 154 157 159 160 163 166 167 172 167 165 158 158 175 314 331 145 138 122 108 115 122 134 148 117 180 227
139 141 143 145 153 161 165 160 159 162 160 158 158 157 159 161 161 164 164 168 176 183 180 182 182 176 167 154 151 162 162 315 169 115 84 106 155 175 165 158 187 208 205
143 146 148 151 155 161 164 162 158 162 159 158 159 160 164 168 170 179 180 184 185 189 190 192 192 184 179 177 171 170 166 169 173 159 145 163 192 207 151 169 190 207 200
154 158 161 159 158 159 161 158 156 162 161 162 165 168 171 173 176 182 184 193 190 193 200 201 200 196 194 170 149 185 188 192 171 171 184 189 188 191 189 193 198 200 190
165 166 164 165 162 159 160 159 162 168 166 170 174 177 179 175 179 175 172 84 120 122 130 19 250 181 129 141 150 159 148 145 173 203 202 204 206 207 205 205 199 202 206
Height
1540 1543 1544 1546 1547 1548 1549 1551 1552 1553 1554 1555 1555 1556 1556 1556 1555 1555 1554 1554 1554 1553 1553 1554 1553 1553 1554 1553 1553 1553 1553 1553 1553 1554 1554 1554 1554 1554 1553 1554 1554 1555 1555
1538 1540 1542 1544 1545 1546 1548 1549 1551 1552 1553 1554 1554 1554 1555 1555 1555 1554 1554 1554 1554 1553 1554 1553 1553 1553 1553 1552 1552 1552 1552 1552 1552 1553 1553 1553 1554 1552 1553 1552 1552 1553 1553
1534 1537 1539 1541 1543 1545 1546 1548 1549 1551 1552 1553 1554 1554 1554 1554 1555 1554 1554 1554 1553 1553 1553 1552 1553 1552 1552 1552 1551 1551 1551 1551 1551 1551 1552 1551 1551 1551 1552 1551 1551 1551 1551
1531 1534 1536 1539 1541 1543 1544 1546 1548 1549 1550 1551 1553 1553 1554 1555 1555 1555 1554 1554 1553 1553 1553 1552 1552 1551 1552 1551 1550 1550 1549 1549 1549 1549 1549 1550 1549 1550 1550 1551 1550 1550 1550
1527 1530 1533 1536 1539 1541 1543 1544 1546 1547 1549 1550 1551 1552 1553 1554 1554 1554 1554 1553 1553 1552 1552 1552 1551 1551 1550 1550 1549 1548 1548 1548 1548 1548 1547 1547 1547 1548 1548 1548 1549 1548 1548
1523 1527 1531 1534 1536 1539 1541 1543 1544 1546 1547 1549 1550 1551 1552 1552 1553 1553 1553 1554 1553 1553 1552 1551 1550 1550 1549 1548 1547 1547 1546 1546 1545 1545 1545 1545 1545 1545 1546 1546 1546 1547 1548
1520 1524 1528 1531 1533 1536 1538 1541 1542 1544 1546 1547 1549 1550 1550 1551 1552 1553 1553 1553 1553 1553 1551 1551 1549 1549 1548 1547 1546 1546 1545 1544 1543 1543 1543 1543 1543 1543 1544 1544 1545 1546 1546
1517 1521 1524 1528 1531 1534 1536 1539 1540 1542 1544 1546 1547 1548 1549 1551 1552 1551 1552 1552 1552 1552 1550 1549 1548 1548 1547 1546 1545 1545 1544 1543 1542 1542 1542 1542 1542 1542 1542 1543 1543 1544 1545
1514 1518 1522 1525 1528 1531 1534 1537 1539 1541 1543 1545 1546 1547 1548 1549 1550 1550 1551 1551 1550 1551 1549 1549 1548 1547 1546 1545 1544 1544 1543 1542 1542 1541 1541 1541 1541 1541 1541 1542 1542 1543 1544
1512 1515 1519 1522 1526 1529 1531 1535 1537 1539 1541 1543 1545 1546 1547 1548 1549 1549 1549 1549 1549 1549 1549 1548 1547 1546 1545 1544 1544 1543 1542 1541 1541 1540 1540 1539 1540 1540 1540 1540 1541 1541 1542
1509 1513 1516 1520 1523 1526 1529 1532 1535 1537 1540 1542 1543 1545 1546 1547 1548 1548 1548 1548 1548 1548 1548 1547 1547 1546 1545 1544 1543 1543 1542 1541 1541 1540 1539 1539 1539 1539 1539 1539 1540 1540 1541
1507 1511 1514 1518 1521 1524 1527 1530 1533 1536 1538 1540 1542 1543 1544 1546 1547 1547 1547 1548 1548 1548 1547 1547 1546 1546 1545 1544 1543 1543 1542 1541 1540 1540 1539 1539 1539 1538 1539 1539 1539 1540 1540
1506 1509 1512 1515 1518 1521 1524 1527 1530 1533 1536 1538 1540 1542 1543 1544 1545 1546 1546 1547 1547 1547 1547 1546 1546 1546 1545 1544 1544 1543 1542 1541 1541 1540 1539 1539 1538 1538 1538 1538 1539 1540 1540
1504 1507 1510 1513 1516 1519 1522 1525 1528 1531 1534 1536 1538 1540 1542 1543 1544 1545 1546 1546 1546 1547 1547 1546 1546 1546 1545 1545 1544 1543 1543 1542 1541 1540 1539 1539 1538 1538 1538 1539 1539 1539 1540
1503 1505 1508 1511 1513 1516 1519 1523 1526 1529 1532 1534 1537 1539 1540 1542 1543 1544 1545 1545 1546 1546 1546 1546 1546 1546 1545 1545 1544 1544 1543 1542 1541 1540 1540 1539 1538 1538 1538 1539 1539 1539 1540
1501 1503 1506 1508 1511 1514 1517 1520 1523 1526 1529 1532 1534 1537 1538 1540 1541 1542 1544 1544 1545 1545 1546 1546 1546 1546 1545 1544 1543 1543 1543 1542 1542 1541 1540 1539 1538 1538 1538 1538 1538 1539 1539
1499 1502 1504 1506 1509 1512 1515 1518 1520 1524 1527 1530 1532 1534 1536 1538 1539 1541 1542 1543 1544 1544 1545 1545 1545 1545 1544 1544 1544 1543 1543 1542 1542 1541 1540 1540 1539 1539 1539 1539 1539 1539 1539
1498 1500 1502 1505 1507 1510 1513 1516 1518 1521 1525 1527 1530 1532 1534 1536 1537 1539 1540 1541 1543 1543 1544 1544 1544 1544 1544 1544 1543 1543 1543 1542 1542 1541 1541 1540 1539 1539 1539 1540 1539 1539 1539
1496 1498 1501 1503 1505 1508 1511 1514 1516 1519 1522 1525 1527 1529 1532 1533 1535 1536 1538 1540 1541 1542 1543 1543 1544 1544 1544 1543 1543 1543 1543 1543 1542 1542 1541 1541 1540 1539 1539 1540 1540 1540 1540
1495 1497 1499 1501 1504 1506 1509 1512 1514 1517 1520 1523 1525 1526 1528 1531 1532 1534 1536 1538 1539 1540 1542 1542 1543 1543 1543 1543 1543 1543 1544 1543 1543 1542 1541 1541 1540 1540 1540 1541 1541 1540 1541
1493 1495 1497 1499 1502 1504 1507 1509 1512 1515 1518 1520 1522 1524 1526 1528 1530 1532 1534 1535 1537 1538 1540 1540 1541 1541 1542 1542 1542 1542 1542 1543 1543 1543 1542 1541 1541 1540 1540 1540 1541 1541 1541
1492 1494 1495 1497 1500 1502 1505 1507 1509 1512 1515 1517 1520 1521 1524 1526 1528 1530 1532 1534 1535 1536 1537 1538 1539 1540 1540 1540 1540 1540 1540 1541 1541 1541 1541 1541 1540 1540 1540 1540 1540 1540 1540
1491 1492 1494 1496 1498 1500 1503 1505 1507 1510 1512 1514 1516 1519 1521 1524 1525 1527 1529 1531 1533 1535 1536 1537 1538 1538 1539 1538 1538 1539 1539 1539 1539 1540 1539 1539 1539 1539 1539 1539 1539 1540 1540
1490 1492 1493 1495 1497 1499 1501 1503 1505 1507 1510 1512 1514 1516 1519 1521 1523 1525 1527 1529 1530 1532 1533 1534 1535 1536 1536 1537 1537 1537 1537 1537 1538 1538 1538 1538 1538 1538 1538 1538 1538 1539 1539
1488 1490 1492 1493 1495 1497 1499 1501 1502 1505 1507 1509 1511 1514 1516 1518 1520 1522 1523 1525 1527 1528 1530 1531 1532 1533 1533 1534 1534 1535 1535 1536 1536 1536 1536 1537 1537 1537 1537 1537 1537 1538 1538
1487 1488 1490 1491 1493 1495 1496 1498 1499 1502 1504 1506 1508 1511 1513 1515 1517 1519 1520 1521 1523 1524 1525 1527 1528 1529 1530 1530 1531 1532 1532 1532 1533 1534 1534 1535 1535 1536 1536 1536 1536 1536 1536